Regional Weather Roundup
Issued by NWS Goodland, KS

Home | Current Version | Previous Version | Text Only | Print | Product List | Glossary Off
Versions: 1 2 3 4 5 6 7 8 9 10 11 12 13 14 15 16 17 18 19 20 21 22 23 24 25 26 27 28 29 30 31 32 33 34 35 36 37 38 39 40 41 42 43 44 45 46 47 48 49 50

000
ASUS43 KGLD 010559
RWRGLD

GOODLAND FORECAST AREA HOURLY WEATHER ROUNDUP
NATIONAL WEATHER SERVICE GOODLAND KS
1100 PM MST SAT JAN 31 2015

...OFFICIAL OBSERVATIONS...

CITY           SKY/WX    TMP DP  RH WIND       PRES   REMARKS
GOODLAND KS    CLOUDY    27  25  92 N26       29.87R WCI  12
HILL CITY KS   LGT SNOW  33  30  88 N21       29.84R FOG
IMPERIAL NEB   LGT SNOW  22  18  85 N25       29.94R FOG     WCI   5
MCCOOK NEB     LGT SNOW  25  21  85 N24G35    29.89R FOG     WCI   9
AKRON CO       FOG       25  25 100 N16       29.92S VSB 3/4 WCI  12
BURLINGTON CO  CLOUDY    31  29  92 N17       29.87R FOG     WCI  19
LIMON CO       LGT SNOW  29  28  96 N15       29.88R FOG     WCI  18
$$

...UNOFFICIAL OBSERVATIONS...

CITY           SKY/WX    TMP DP  RH WIND       PRES   REMARKS
GOVE KS          N/A     33  32  96 MISG        N/A
SHARON SPRINGS   N/A     33  31  93 NE13        N/A
KIT CARSON CO    N/A     33  30  90 MISG        N/A
YUMA CO          N/A     25  23  91 N12G20      N/A  WCI  14
$$


USA.gov is the U.S. government's official web portal to all federal, state and local government web resources and services.